Weather History for Punta Gorda, FL

Change the Weather History Date:

Friday, December 21, 2012

  Actual Average Record
Temperature  
Mean Temperature 60 °F -  
Max Temperature 73 °F 71 °F 87 °F (2013)
Min Temperature 46 °F 50 °F 30 °F (2000)
Degree Days  
Heating Degree Days 6    
Growing Degree Days 10 (Base 50)    
Moisture  
Dew Point 51 °F    
Average Humidity 68    
Maximum Humidity 94    
Minimum Humidity 29    
Precipitation  
Precipitation 0.15 in - - ()
Sea Level Pressure  
Sea Level Pressure 30.11 in    
Wind  
Wind Speed 13 mph (NW)    
Max Wind Speed 20 mph    
Max Gust Speed 26 mph    
Visibility 10 miles    
Events Rain , Thunderstorm    
Averages and records for this station are not official NWS values.
T = Trace of Precipitation, MM = Missing Value Source: NWS Daily Summary

Daily Weather History Graph

Daily Weather History Graph

Search for Another Location

Airport:

Trip Planner

Search our weather history database for the weather conditions in past years. The results will help you decide how hot, cold, wet, or windy it might be!

Date:

Astronomy

Dec. 21, 2012 Rise Set
Actual Time 7:12 AM EST 5:39 PM EST
Civil Twilight 6:47 AM EST 6:05 PM EST
Nautical Twilight 6:18 AM EST 6:34 PM EST
Astronomical Twilight 5:49 AM EST 7:02 PM EST
Moon 1:06 PM EST (12/21) 1:21 AM EST (12/21)
Length of Visible Light 11h 17m
Length of Day
10h 26m
Waxing Gibbous, 64% of the Moon is Illuminated
Dec 21
Waxing Gibbous
Dec 28
Full
Jan 4
Last Quarter
Jan 11
New
Jan 18
First Quarter

Hourly Weather History & Observations

Time (EST) Temp. Dew Point Humidity Pressure Visibility Wind Dir Wind Speed Gust Speed Precip Events Conditions
12:48 AM 73.4 °F 69.8 °F 88% 30.00 in 10.0 mi SSW 10.4 mph - N/A   Mostly Cloudy
12:53 AM 73.0 °F 69.1 °F 87% 30.00 in 10.0 mi SSW 10.4 mph - N/A   Mostly Cloudy
1:20 AM 73.4 °F 69.8 °F 88% 29.99 in 10.0 mi SSW 12.7 mph - N/A Thunderstorm Overcast
1:31 AM 71.6 °F 68.0 °F 88% 30.01 in 10.0 mi WNW 13.8 mph 21.9 mph N/A   Overcast
1:38 AM 69.8 °F 66.2 °F 88% 30.01 in 2.5 mi West 19.6 mph 24.2 mph 0.09 in Rain Heavy Rain
1:49 AM 71.6 °F 66.2 °F 83% 30.01 in 8.0 mi West 16.1 mph 21.9 mph 0.12 in Rain Light Rain
1:53 AM 71.1 °F 66.9 °F 87% 30.01 in 10.0 mi West 13.8 mph - 0.12 in Rain Light Rain
2:01 AM 71.6 °F 66.2 °F 83% 30.01 in 10.0 mi West 19.6 mph 26.5 mph 0.00 in Rain Light Rain
2:16 AM 69.8 °F 68.0 °F 94% 30.01 in 4.0 mi West 12.7 mph - 0.02 in Rain Rain
2:37 AM 69.8 °F 64.4 °F 83% 30.02 in 10.0 mi NW 12.7 mph - 0.03 in   Overcast
2:53 AM 68.0 °F 64.9 °F 90% 30.03 in 10.0 mi NNW 12.7 mph - 0.03 in   Overcast
3:22 AM 66.2 °F 62.6 °F 88% 30.03 in 10.0 mi NW 12.7 mph - N/A   Overcast
3:53 AM 66.0 °F 61.0 °F 84% 30.03 in 10.0 mi NW 13.8 mph - N/A   Overcast
4:53 AM 63.0 °F 54.0 °F 72% 30.05 in 10.0 mi NNW 19.6 mph 26.5 mph N/A   Partly Cloudy
5:53 AM 60.1 °F 50.0 °F 69% 30.08 in 10.0 mi NNW 13.8 mph 26.5 mph N/A   Clear
6:53 AM 57.9 °F 46.9 °F 67% 30.12 in 10.0 mi NNW 12.7 mph 23.0 mph N/A   Clear
7:53 AM 57.0 °F 46.0 °F 67% 30.15 in 10.0 mi NNW 15.0 mph - N/A   Clear
8:53 AM 57.9 °F 44.1 °F 60% 30.18 in 10.0 mi NNW 16.1 mph 23.0 mph N/A   Clear
9:53 AM 60.1 °F 43.0 °F 53% 30.20 in 10.0 mi NNW 16.1 mph 25.3 mph N/A   Clear
10:53 AM 63.0 °F 39.9 °F 43% 30.20 in 10.0 mi NNW 19.6 mph 26.5 mph N/A   Clear
11:53 AM 64.0 °F 34.0 °F 33% 30.18 in 10.0 mi NNW 19.6 mph 26.5 mph N/A   Clear
12:53 PM 64.9 °F 37.0 °F 36% 30.16 in 10.0 mi NNW 16.1 mph 23.0 mph N/A   Clear
1:53 PM 66.0 °F 37.0 °F 34% 30.14 in 10.0 mi NNW 16.1 mph 21.9 mph N/A   Clear
2:53 PM 66.0 °F 33.1 °F 29% 30.14 in 10.0 mi NNW 17.3 mph 25.3 mph N/A   Clear
3:53 PM 64.0 °F 37.0 °F 37% 30.15 in 10.0 mi NW 18.4 mph 23.0 mph N/A   Clear
4:53 PM 61.0 °F 35.1 °F 38% 30.16 in 10.0 mi NNW 15.0 mph - N/A   Clear
5:53 PM 55.9 °F 37.9 °F 51% 30.17 in 10.0 mi NW 5.8 mph - N/A   Clear
6:53 PM 54.0 °F 41.0 °F 62% 30.19 in 10.0 mi NW 6.9 mph - N/A   Clear
7:53 PM 53.1 °F 41.0 °F 64% 30.21 in 10.0 mi NNW 9.2 mph - N/A   Clear
8:53 PM 51.1 °F 41.0 °F 68% 30.23 in 10.0 mi North 8.1 mph - N/A   Clear
9:53 PM 51.1 °F 41.0 °F 68% 30.25 in 10.0 mi North 8.1 mph - N/A   Clear
10:53 PM 46.9 °F 39.9 °F 77% 30.25 in 10.0 mi North 6.9 mph - N/A   Clear
11:53 PM 48.0 °F 41.0 °F 77% 30.25 in 10.0 mi North 5.8 mph - N/A   Clear